Regional Weather Roundup
Issued by NWS

Home | Current Version | Previous Version | Text Only | Print | Product List | Glossary Off
Versions: 1 2 3 4 5 6 7 8 9 10 11 12 13 14 15 16 17 18 19 20 21 22 23 24 25 26 27 28 29 30 31 32 33 34 35 36 37 38 39 40 41 42 43 44 45 46 47 48 49 50

000
ASUS43 KMKX 191000
RWRWI

WISCONSIN REGIONAL WEATHER ROUNDUP
NATIONAL WEATHER SERVICE MILWAUKEE/SULLIVAN WI
500 AM CDT TUE SEP 19 2017

NOTE: "FAIR" INDICATES FEW OR NO CLOUDS BELOW 12,000 FEET WITH NO
SIGNIFICANT WEATHER AND/OR OBSTRUCTIONS TO VISIBILITY.

WIZ001-002-006>008-014>016-023>028-191100-
NORTHWEST WISCONSIN

CITY           SKY/WX    TMP DP  RH WIND       PRES   REMARKS
SUPERIOR ARPT  CLOUDY    56  56  99 CALM      29.96F
ASHLAND        CLOUDY    57  54  89 E3        29.99F
HAYWARD        CLOUDY    58  54  86 SE3       29.98S
SIREN          CLOUDY    58  56  91 SE3       29.95S
CUMBERLAND     CLOUDY    55  54  94 CALM      29.96F
RICE LAKE      CLOUDY    58  57  95 E6        29.98S
CHETEK         CLOUDY    58  57  96 E3        29.97S
LADYSMITH      MOCLDY    56  55  96 E5        30.00S
EAU CLAIRE     NOT AVBL
MENOMONIE      CLOUDY    59  58  96 CALM      29.96S
NEW RICHMOND   NOT AVBL
OSCEOLA        CLOUDY    58  58 100 E6        29.96F
$$

WIZ003>005-009-010-017-018-191100-
NORTH CENTRAL WISCONSIN

CITY           SKY/WX    TMP DP  RH WIND       PRES   REMARKS
MANITOWISH WTR CLOUDY    55  54  98 SE3       30.03R
ARBOR VITAE    CLOUDY    57  54  89 CALM      30.03R
WOODRUFF       CLOUDY    57  54  89 CALM      30.03R
RHINELANDER    CLOUDY    52  52 100 E5        30.03S
EAGLE RIVER    CLOUDY    55  51  87 SE5       30.03S
LAND O LAKES   CLOUDY    54  51  90 CALM      30.05S
PHILLIPS       CLOUDY    55  54  97 CALM      30.00S
TOMAHAWK         N/A     53  49  89 CALM      30.02F
MEDFORD        CLEAR     52  51  95 CALM      30.00S
MERRILL          N/A     54  54 100 CALM      30.01F
$$

WIZ029-030-035-036-043>047-191100-
CENTRAL WISCONSIN

CITY           SKY/WX    TMP DP  RH WIND       PRES   REMARKS
WAUSAU         CLOUDY    54  52  93 E9        29.99F
MOSINEE        CLOUDY    54  52  94 E8        30.01S
MARSHFIELD     CLOUDY    55  51  86 E8        29.99S
STEVENS POINT  CLOUDY    54  53  97 E5        30.01S
WAUPACA        CLOUDY    59  54  84 CALM      30.00F
WAUTOMA        CLOUDY    57  53  86 E5        30.00S
WISC RAPIDS    CLOUDY    58  52  80 E5        30.00S
CAMP DOUGLAS   NOT AVBL
$$

WIZ011>013-019>022-031-037>040-048>050-191100-
NORTHEAST WISCONSIN

CITY           SKY/WX    TMP DP  RH WIND       PRES   REMARKS
ANTIGO         CLOUDY    54  51  90 E6        30.03S
SHAWANO        CLOUDY    60  55  84 NE6       30.01S
OCONTO         CLOUDY    59  56  90 NE5       30.01S
STURGEON BAY   CLOUDY    60  57  89 NE5       30.03R
GREEN BAY      MOCLDY    60  59  96 NE9       30.00S
MANITOWOC      CLOUDY    58  56  93 N3        30.00S
APPLETON       CLOUDY    57  54  88 NE7       29.99S
CLINTONVILLE   CLOUDY    57  52  82 NE3       30.01F
OSHKOSH        CLOUDY    61  58  90 NE6       29.99S
$$

WIZ032>034-041-042-053>061-191100-
SOUTHWEST WISCONSIN

CITY           SKY/WX    TMP DP  RH WIND       PRES   REMARKS
LA CROSSE      MOCLDY    60  59  96 SE6       29.95S
SPARTA         CLOUDY    55  54  96 CALM      29.97F
VIROQUA        CLEAR     56  56 100 E6        29.97S
BOSCOBEL       CLEAR     58  56  93 CALM      29.96S
PRAIRIE DU CHI CLEAR     58  56  93 CALM      29.95S
PLATTEVILLE    CLEAR     58  57  96 E3        29.96S
$$

WIZ056-057-062-063-064-067-068-191100-
SOUTH CENTRAL WISCONSIN

CITY           SKY/WX    TMP DP  RH WIND       PRES   REMARKS
REEDSBURG      MOCLDY    56  56  99 E3        29.97F
BARABOO/DELLS  CLOUDY    56  54  90 CALM      29.98S
LONE ROCK      NOT AVBL
MINERAL POINT  CLEAR     59  57  94 E3        29.97S
MADISON        CLOUDY    58  56  93 N5        29.97F
MIDDLETON      CLOUDY    60  58  92 CALM      29.98F
WATERTOWN      CLOUDY    59  59 100 W6        29.98R
MONROE         MOCLDY    59  55  88 CALM      29.96F
JANESVILLE     DRIZZLE   59  59 100 CALM      29.96F
$$

WIZ051-052-058>065-066-070>072-191100-
SOUTHEAST WISCONSIN

CITY           SKY/WX    TMP DP  RH WIND       PRES   REMARKS
MILWAUKEE      CLOUDY    65  63  93 CALM      29.96S
WAUKESHA       CLOUDY    59  55  88 CALM      29.98S
MILWAUKEE/TIMM CLOUDY    61  55  82 CALM      29.98S
RACINE         CLOUDY    66  64  93 N5        29.98R
BURLINGTON     LGT RAIN  61  61 100 NW3       29.97S
KENOSHA        CLOUDY    65  60  84 N6        29.96S
FOND DU LAC    PTCLDY    54  52  93 CALM      29.98F
SHEBOYGAN      CLOUDY    59  58  96 NE5       29.99R
WEST BEND        N/A     57  55  94 CALM      29.98S
JUNEAU         MOCLDY    57  55  92 CALM      29.99S
$$

LSZ147-162-191100-
LAKE SUPERIOR

STATION/POSITION TIME  TEMP    WIND        PRES    WAVE
                       AIR SEA DIR/SP/G            HT/PER
                 (UTC) (F)     (DEG/KT/KT) (MB)    (FT/S)
W MID LAKE BUOY  0850   57 54  140/  8/  8 1016.1R   1
DEVILS ISLAND    0900   59     150/  7/  9 1015.7F
PORT WING        0840   59     360/  2/  2 1015.2S
SAXON HARBOR     0940   58      CALM  /  2 1014.9S
$$

LMZ867-665-643>646-191100-
LAKE MICHIGAN

STATION/POSITION TIME  TEMP    WIND        PRES    WAVE
                       AIR SEA DIR/SP/G            HT/PER
                 (UTC) (F)     (DEG/KT/KT) (MB)    (FT/S)
S GREEN BAY BUOY 0930   65 66   70/ 16/ 19 1015.9F
N MID LAKE BUOY  0850   64 64   90/ 14/ 16 1017.8F   2/ 3
NORTHPORT PIER   0940   64      80/ 11/ 15 1016.9S
KEWAUNEE LAKESHO 0930   59      30/  4/  7 1015.0S
SHEBOYGAN LAKESH 0900   64     360/  5/  7 1014.8F
PORT WASHINGTON  0930   63     330/  3/  4 1015.9R
ATWATER BUOY     0809   65 67  360/ 10/ 14 1014.9F
MILWAUKEE LAKESH 0920   64      10/  6/  8   N/A
S MID LAKE BUOY  0850   67 68   80/ 12/ 14 1014.1S   2/ 5
KENOSHA   LAKESH 0900   67      40/  6/  8 1014.2
$$

TC  - TEMPERATURE IN CELSIUS
VSB - VISIBILITY IN STATUTE MILES
WCI - WIND CHILL INDEX
HX  - HEAT INDEX




USA.gov is the U.S. government's official web portal to all federal, state and local government web resources and services.